This is the latest recevied weather packets stored in our database for station/object DK7LH-6. If no packets are shown the sender has not sent any weather packets the latest 10 day(s).
| Time | Temp. | Humidity | Pressure | Rain* | Wind** | Luminosity | Snow |
|---|---|---|---|---|---|---|---|
| 1778249759 | 17.78° C | 40% | 1019.1 hPa | 0 mm | - | 562 W/m² | - |
| 1778248829 | 17.22° C | 40% | 1019.3 hPa | 0 mm | - | 554 W/m² | - |
| 1778247961 | 16.67° C | 40% | 1019.6 hPa | 0 mm | - | 586 W/m² | - |
| 1778247031 | 17.22° C | 40% | 1019.9 hPa | 0 mm | - | 523 W/m² | - |
| 1778246163 | 17.22° C | 41% | 1019.8 hPa | 0 mm | - | 522 W/m² | - |
| 1778245233 | 16.67° C | 41% | 1019.9 hPa | 0 mm | - | 584 W/m² | - |
| 1778244366 | 17.22° C | 40% | 1020 hPa | 0 mm | - | 637 W/m² | - |
| 1778243436 | 16.11° C | 40% | 1019.9 hPa | 0 mm | - | 667 W/m² | - |
| 1778242567 | 16.11° C | 39% | 1019.9 hPa | 0 mm | - | 710 W/m² | - |
| 1778241637 | 16.11° C | 41% | 1019.7 hPa | 0 mm | - | 683 W/m² | - |
| 1778240740 | 16.11° C | 40% | 1019.7 hPa | 0 mm | - | 601 W/m² | - |
| 1778239839 | 15.56° C | 40% | 1019.3 hPa | 0 mm | - | 134 W/m² | - |
| 1778238971 | 15.56° C | 40% | 1019.1 hPa | 0 mm | - | 673 W/m² | - |
| 1778238041 | 15.56° C | 42% | 1019.2 hPa | 0 mm | - | 711 W/m² | - |
| 1778237173 | 15.56° C | 44% | 1019.2 hPa | 0 mm | - | 755 W/m² | - |
| 1778236274 | 15.56° C | 44% | 1019.3 hPa | 0 mm | - | 701 W/m² | - |
| 1778235344 | 15° C | 45% | 1019.5 hPa | 0 mm | - | 783 W/m² | - |
| 1778234476 | 15.56° C | 46% | 1019.5 hPa | 0 mm | - | 734 W/m² | - |
| 1778233548 | 15° C | 48% | 1019.5 hPa | 0 mm | - | 672 W/m² | - |
| 1778232616 | 14.44° C | 48% | 1019.5 hPa | 0 mm | - | 687 W/m² | - |
| 1778231748 | 13.89° C | 49% | 1019.5 hPa | 0 mm | - | 652 W/m² | - |
| 1778230818 | 13.89° C | 51% | 1019.6 hPa | 0 mm | - | 453 W/m² | - |
| 1778229950 | 13.89° C | 53% | 1019.5 hPa | 0 mm | - | 588 W/m² | - |
| 1778229020 | 13.33° C | 52% | 1019.7 hPa | 0 mm | - | 604 W/m² | - |
| 1778228152 | 13.33° C | 53% | 1019.6 hPa | 0 mm | - | 528 W/m² | - |
* Rain latest hour (hover to see other rain measurements)
** Current wind speed in m/s (hover to see current wind gust speed)